Date String (YYYY-MM-DD hh:mm:ss) UTC,Instrument flags,absolute air pressure of the measurement (hPa),sample flow rate (lpm),inlet stack bypass flow (lpm),air temperature of the measurement (°C),ambient temperature measured by the external sensor (°C),aerosol sample conditioner tube jacket temperature (°C),OPC LED temperature (°C),internal box temperature (°C),relative humidity of the measurement (%),span deviation,mass concentration of particles derived from Lorenz-Mie calculation of OPC scattering (μg/m³),mass concentration of particles derived from Lorenz-Mie calculation of OPC scattering (μg/m³),mass concentration of particles derived from Lorenz-Mie calculation of OPC scattering (μg/m³)
DateTimeUTC,F1_M11,P_M11,Q1_M11,Q2_M11,T1_M11,T2_M11,T3_M11,T4_M11,T5_M11,U1_M11,ZSPAN_M11,X2_M11,X0_M11,X1_M11
2023-12-22 02:00:00,SystemResetWarning,0833.0,5.01,000.00,026.1,025.0,000.0,034.4,027.5,11.0,0000.0,0000.84,0001.21,0000.75
2023-12-22 02:01:00,SystemResetWarning,0833.0,5.00,000.00,026.1,025.0,000.0,034.4,027.5,11.0,0000.0,0000.84,0001.21,0000.75
2023-12-22 02:02:00,SystemResetWarning,0833.0,5.00,000.00,026.1,025.0,000.0,034.4,027.5,11.0,0000.0,0000.85,0001.26,0000.74
2023-12-22 02:03:00,SystemResetWarning,0833.1,5.00,000.00,026.1,025.0,000.0,034.4,027.5,11.0,0000.0,0000.86,0001.27,0000.73
2023-12-22 02:04:00,SystemResetWarning,0833.3,5.00,000.00,026.1,025.0,000.0,034.4,027.5,10.9,0000.0,0000.87,0001.26,0000.73
2023-12-22 02:05:00,SystemResetWarning,0833.4,5.00,000.00,026.1,025.0,000.0,034.4,027.5,10.9,0000.0,0000.87,0001.29,0000.73
2023-12-22 02:06:00,SystemResetWarning,0833.0,5.00,000.00,026.1,024.9,000.0,034.4,027.5,10.8,0000.0,0000.86,0001.22,0000.72
2023-12-22 02:07:00,SystemResetWarning,0833.4,5.01,000.00,026.1,025.0,000.0,034.4,027.5,10.8,0000.0,0000.87,0001.22,0000.73
2023-12-22 02:08:00,SystemResetWarning,0833.1,5.00,000.00,026.1,025.0,000.0,034.4,027.5,10.8,0000.0,0000.90,0001.27,0000.74
2023-12-22 02:09:00,SystemResetWarning,0833.3,5.00,000.00,026.1,024.9,000.0,034.4,027.4,10.8,0000.0,0000.91,0001.32,0000.75
2023-12-22 02:10:00,SystemResetWarning,0833.3,5.00,000.00,026.1,024.9,000.0,034.4,027.4,10.9,0000.0,0000.91,0001.31,0000.74
2023-12-22 02:11:00,SystemResetWarning,0833.2,5.00,000.00,026.0,024.9,000.0,034.4,027.4,10.9,0000.0,0000.91,0001.34,0000.73
2023-12-22 02:12:00,SystemResetWarning,0833.1,5.00,000.00,026.0,024.9,000.0,034.4,027.4,10.9,0000.0,0000.94,0001.41,0000.73
2023-12-22 02:13:00,SystemResetWarning,0833.4,5.00,000.00,026.0,024.9,000.0,034.4,027.4,11.0,0000.0,0000.94,0001.38,0000.74
2023-12-22 02:14:00,SystemResetWarning,0833.2,4.99,000.00,026.0,024.9,000.0,034.4,027.4,11.0,0000.0,0000.93,0001.33,0000.75
2023-12-22 02:15:00,SystemResetWarning,0833.1,5.00,000.00,026.0,024.9,000.0,034.4,027.4,10.9,0000.0,0000.91,0001.30,0000.74
2023-12-22 02:16:00,SystemResetWarning,0833.0,4.99,000.00,026.0,024.9,000.0,034.4,027.4,10.9,0000.0,0000.90,0001.28,0000.75
2023-12-22 02:17:00,SystemResetWarning,0833.0,5.00,000.00,026.0,024.9,000.0,034.3,027.4,10.9,0000.0,0000.93,0001.33,0000.75
2023-12-22 02:18:00,SystemResetWarning,0833.0,5.00,000.00,026.0,024.9,000.0,034.3,027.4,10.8,0000.0,0000.93,0001.33,0000.75
2023-12-22 02:19:00,SystemResetWarning,0833.0,5.01,000.00,026.0,024.8,000.0,034.3,027.4,10.8,0000.0,0000.91,0001.30,0000.75
2023-12-22 02:20:00,SystemResetWarning,0833.0,5.00,000.00,026.0,024.8,000.0,034.3,027.4,10.9,0000.0,0000.89,0001.24,0000.74
2023-12-22 02:21:00,SystemResetWarning,0833.1,5.01,000.00,026.0,024.8,000.0,034.3,027.4,10.9,0000.0,0000.88,0001.20,0000.74
2023-12-22 02:22:00,SystemResetWarning,0833.2,5.00,000.00,026.0,024.8,000.0,034.3,027.4,10.8,0000.0,0000.88,0001.19,0000.75
2023-12-22 02:23:00,SystemResetWarning,0833.0,5.00,000.00,026.0,024.8,000.0,034.3,027.4,10.8,0000.0,0000.87,0001.16,0000.75
2023-12-22 02:24:00,SystemResetWarning,0833.1,4.99,000.00,026.0,024.8,000.0,034.3,027.4,10.8,0000.0,0000.85,0001.14,0000.74
2023-12-22 02:25:00,SystemResetWarning,0833.3,5.00,000.00,026.0,024.8,000.0,034.3,027.4,10.9,0000.0,0000.84,0001.14,0000.73
2023-12-22 02:26:00,SystemResetWarning,0833.5,4.99,000.00,026.0,024.8,000.0,034.3,027.4,10.9,0000.0,0000.87,0001.20,0000.74
2023-12-22 02:27:00,SystemResetWarning,0833.3,5.00,000.00,026.0,024.8,000.0,034.3,027.4,10.9,0000.0,0000.88,0001.24,0000.73
2023-12-22 02:28:00,SystemResetWarning,0833.2,5.01,000.00,026.0,024.8,000.0,034.3,027.4,10.9,0000.0,0000.85,0001.19,0000.73
2023-12-22 02:29:00,SystemResetWarning,0833.1,5.01,000.00,026.0,024.8,000.0,034.3,027.3,10.9,0000.0,0000.85,0001.21,0000.72
2023-12-22 02:30:00,SystemResetWarning,0833.0,5.00,000.00,025.9,024.8,000.0,034.3,027.3,10.9,0000.0,0000.84,0001.21,0000.70
2023-12-22 02:31:00,SystemResetWarning,0833.0,5.00,000.00,025.9,024.8,000.0,034.3,027.3,10.9,0000.0,0000.85,0001.24,0000.70
2023-12-22 02:32:00,SystemResetWarning,0833.1,5.00,000.00,025.9,024.8,000.0,034.3,027.2,10.9,0000.0,0000.84,0001.24,0000.69
2023-12-22 02:33:00,SystemResetWarning,0833.2,5.00,000.00,025.9,024.8,000.0,034.3,027.2,10.9,0000.0,0000.83,0001.22,0000.69
2023-12-22 02:34:00,SystemResetWarning,0833.1,5.00,000.00,025.9,024.8,000.0,034.3,027.2,11.0,0000.0,0000.84,0001.24,0000.69
2023-12-22 02:35:00,SystemResetWarning,0833.2,5.00,000.00,025.9,024.8,000.0,034.3,027.3,10.9,0000.0,0000.86,0001.28,0000.69
2023-12-22 02:36:00,SystemResetWarning,0832.9,5.00,000.00,025.9,024.7,000.0,034.3,027.2,10.8,0000.0,0000.86,0001.28,0000.69
2023-12-22 02:37:00,SystemResetWarning,0833.0,5.00,000.00,025.9,024.7,000.0,034.3,027.3,10.7,0000.0,0000.84,0001.22,0000.70
2023-12-22 02:38:00,SystemResetWarning,0833.2,5.00,000.00,025.9,024.7,000.0,034.3,027.2,10.8,0000.0,0000.86,0001.26,0000.71
2023-12-22 02:39:00,SystemResetWarning,0832.9,5.00,000.00,025.9,024.7,000.0,034.3,027.2,10.7,0000.0,0000.89,0001.33,0000.72
2023-12-22 02:40:00,SystemResetWarning,0833.3,5.02,000.00,025.9,024.7,000.0,034.2,027.2,10.7,0000.0,0000.91,0001.34,0000.75
2023-12-22 02:41:00,SystemResetWarning,0833.3,5.00,000.00,025.8,024.7,000.0,034.2,027.2,10.8,0000.0,0000.93,0001.36,0000.77
2023-12-22 02:42:00,SystemResetWarning,0833.1,5.00,000.00,025.8,024.7,000.0,034.2,027.2,10.8,0000.0,0000.91,0001.30,0000.76
2023-12-22 02:43:00,SystemResetWarning,0833.1,4.99,000.00,025.8,024.7,000.0,034.2,027.1,10.9,0000.0,0000.93,0001.32,0000.77
2023-12-22 02:44:00,SystemResetWarning,0833.1,4.99,000.00,025.8,024.7,000.0,034.2,027.2,10.9,0000.0,0000.96,0001.38,0000.78
2023-12-22 02:45:00,SystemResetWarning,0833.0,5.01,000.00,025.8,024.7,000.0,034.2,027.2,10.8,0000.0,0000.94,0001.35,0000.78
2023-12-22 02:46:00,SystemResetWarning,0833.1,5.00,000.00,025.8,024.6,000.0,034.2,027.2,10.8,0000.0,0000.93,0001.33,0000.77
2023-12-22 02:47:00,SystemResetWarning,0833.0,4.98,000.00,025.8,024.6,000.0,034.2,027.2,10.8,0000.0,0000.95,0001.45,0000.77
2023-12-22 02:48:00,SystemResetWarning,0833.0,5.01,000.00,025.8,024.6,000.0,034.2,027.2,10.7,0000.0,0000.96,0001.50,0000.77
2023-12-22 02:49:00,SystemResetWarning,0833.3,5.01,000.00,025.8,024.6,000.0,034.2,027.1,10.7,0000.0,0000.93,0001.47,0000.76
2023-12-22 02:50:00,SystemResetWarning,0833.2,4.99,000.00,025.8,024.6,000.0,034.2,027.2,10.7,0000.0,0000.90,0001.42,0000.75
2023-12-22 02:51:00,SystemResetWarning,0833.5,4.99,000.00,025.8,024.6,000.0,034.2,027.1,10.7,0000.0,0000.89,0001.41,0000.75
2023-12-22 02:52:00,SystemResetWarning,0833.2,5.01,000.00,025.8,024.6,000.0,034.2,027.1,10.7,0000.0,0000.91,0001.46,0000.75
2023-12-22 02:53:00,SystemResetWarning,0833.0,5.01,000.00,025.8,024.6,000.0,034.1,027.1,10.8,0000.0,0000.94,0001.52,0000.77
2023-12-22 02:54:00,SystemResetWarning,0833.1,5.00,000.00,025.7,024.6,000.0,034.1,027.0,10.7,0000.0,0000.94,0001.52,0000.78
2023-12-22 02:55:00,SystemResetWarning,0833.1,4.98,000.00,025.7,024.6,000.0,034.1,027.1,10.7,0000.0,0000.94,0001.55,0000.77
2023-12-22 02:56:00,SystemResetWarning,0833.1,4.99,000.00,025.7,024.6,000.0,034.1,027.1,10.7,0000.0,0000.93,0001.53,0000.76
2023-12-22 02:57:00,SystemResetWarning,0833.0,5.01,000.00,025.7,024.6,000.0,034.1,027.1,10.6,0000.0,0000.92,0001.51,0000.77
2023-12-22 02:58:00,SystemResetWarning,0833.4,5.01,000.00,025.7,024.5,000.0,034.1,027.0,10.7,0000.0,0000.90,0001.39,0000.77
2023-12-22 02:59:00,SystemResetWarning,0833.4,5.01,000.00,025.7,024.5,000.0,034.1,027.0,10.7,0000.0,0000.89,0001.33,0000.77
